This is the latest recevied weather packets stored in our database for station/object IA5ITY-13. If no packets are shown the sender has not sent any weather packets the latest 10 day(s).
| Time | Temp. | Humidity | Pressure | Rain* | Wind** | Luminosity | Snow |
|---|---|---|---|---|---|---|---|
| 1777712431 | 21.11° C | 27% | 1023.8 hPa | 0 mm | - | - | - |
| 1777712109 | 22.22° C | 24% | 1023.9 hPa | 0 mm | - | - | - |
| 1777711811 | 22.22° C | 23% | 1023.9 hPa | 0 mm | - | - | - |
| 1777711512 | 22.22° C | 22% | 1023.9 hPa | 0 mm | - | - | - |
| 1777711212 | 22.78° C | 21% | 1023.9 hPa | 0 mm | - | - | - |
| 1777710908 | 22.22° C | 21% | 1024 hPa | 0 mm | - | - | - |
| 1777710621 | 22.22° C | 20% | 1023.9 hPa | 0 mm | - | - | - |
| 1777710309 | 22.22° C | 20% | 1023.9 hPa | 0 mm | - | - | - |
| 1777710013 | 22.22° C | 21% | 1023.9 hPa | 0 mm | - | - | - |
| 1777709713 | 22.78° C | 21% | 1024 hPa | 0 mm | - | - | - |
| 1777709412 | 22.22° C | 22% | 1024 hPa | 0 mm | - | - | - |
| 1777709109 | 22.22° C | 21% | 1023.9 hPa | 0 mm | - | - | - |
| 1777708831 | 22.22° C | 21% | 1024 hPa | 0 mm | - | - | - |
| 1777708508 | 21.11° C | 22% | 1024 hPa | 0 mm | - | - | - |
| 1777708212 | 21.11° C | 22% | 1024 hPa | 0 mm | - | - | - |
| 1777707912 | 21.11° C | 22% | 1024 hPa | 0 mm | - | - | - |
| 1777707612 | 21.11° C | 22% | 1024 hPa | 0 mm | - | - | - |
| 1777707308 | 20° C | 22% | 1024.1 hPa | 0 mm | - | - | - |
| 1777707022 | 20° C | 22% | 1024 hPa | 0 mm | - | - | - |
| 1777706709 | 22.22° C | 19% | 1024.1 hPa | 0 mm | - | - | - |
| 1777706413 | 22.22° C | 22% | 1024.1 hPa | 0 mm | - | - | - |
| 1777706111 | 22.22° C | 24% | 1024 hPa | 0 mm | - | - | - |
| 1777705812 | 22.22° C | 25% | 1024 hPa | 0 mm | - | - | - |
| 1777705509 | 21.11° C | 20% | 1024 hPa | 0 mm | - | - | - |
| 1777705231 | 21.11° C | 21% | 1024 hPa | 0 mm | - | - | - |
* Rain latest hour (hover to see other rain measurements)
** Current wind speed in m/s (hover to see current wind gust speed)